{"data":{"norad_id":49204,"epoch":"2026-09-19T23:08:40.748064Z","epoch_age_seconds":57476,"freshness":"FRESH","line1":"1 49204U 21083U   26262.96436051 -.00000008  00000+0 -50430-4 0  9990","line2":"2 49204  87.9145 255.5387 0001934  77.0294 283.1055 13.20770449249327","mean_motion":13.20770449,"eccentricity":0.0001934,"inclination_deg":87.9145,"raan_deg":255.5387,"arg_perigee_deg":77.0294,"mean_anomaly_deg":283.1055,"bstar":-5.043e-5,"rev_number":24932,"period_min":109.02727276267,"perigee_km":1180.3164897049,"apogee_km":1183.2406650502,"semimajor_km":7559.9155773776,"source":"CELESTRAK","updated_at":"2026-09-20T09:00:44.664133Z"}}